,,,PA_Meas_PMT16A,,PR_Meas_QMR101_102,,RH_Meas_QMH101,,SR_Meas_QMS101,,TA_Meas_QMH101,,GenWind,,GenWind,
date,time,status,PA,status,PR,status,RH,status,SR,status,TA,status,DirAvg,status,SpdAvg,
2010-01-03, 00:00:05,VALID,1009.77,VALID,0,VALID,38.0678,VALID,0.105969,VALID,24.0058,VALID,326,VALID,0,
2010-01-03, 00:01:05,VALID,1009.77,VALID,0,VALID,38.0449,VALID,0.105969,VALID,24.0058,VALID,326,VALID,0,
2010-01-03, 00:02:05,VALID,1009.75,VALID,0,VALID,38.0525,VALID,0.105969,VALID,23.9845,VALID,326,VALID,0,
2010-01-03, 00:03:05,VALID,1009.76,VALID,0,VALID,38.0525,VALID,0,VALID,23.9863,VALID,326,VALID,0,
2010-01-03, 00:04:05,VALID,1009.77,VALID,0,VALID,38.0754,VALID,0.105969,VALID,23.965,VALID,326,VALID,0,
2010-01-03, 00:05:05,VALID,1009.78,VALID,0,VALID,38.083,VALID,0.105969,VALID,23.9455,VALID,326,VALID,0,
2010-01-03, 00:06:05,VALID,1009.78,VALID,0,VALID,38.1211,VALID,0,VALID,23.9473,VALID,326,VALID,0,
2010-01-03, 00:07:05,VALID,1009.81,VALID,0,VALID,38.0601,VALID,0.105969,VALID,23.9668,VALID,326,VALID,0,
2010-01-03, 00:08:05,VALID,1009.8,VALID,0,VALID,38.1288,VALID,0,VALID,23.9668,VALID,326,VALID,0,
2010-01-03, 00:09:05,VALID,1009.78,VALID,0,VALID,38.0754,VALID,0.105969,VALID,23.9668,VALID,326,VALID,0,
2010-01-03, 00:10:05,VALID,1009.8,VALID,0,VALID,38.0906,VALID,0.105969,VALID,23.9668,VALID,326,VALID,0,
2010-01-03, 00:11:05,VALID,1009.78,VALID,0,VALID,38.144,VALID,0,VALID,23.9473,VALID,326,VALID,0,
2010-01-03, 00:12:05,VALID,1009.75,VALID,0,VALID,38.1135,VALID,0,VALID,23.9278,VALID,326,VALID,0,
2010-01-03, 00:13:05,VALID,1009.72,VALID,0,VALID,38.1593,VALID,0.105969,VALID,23.9278,VALID,326,VALID,0,
2010-01-03, 00:14:05,VALID,1009.74,VALID,0,VALID,38.1745,VALID,0.105969,VALID,23.9278,VALID,326,VALID,0,
2010-01-03, 00:15:05,VALID,1009.75,VALID,0,VALID,38.1288,VALID,0.105969,VALID,23.9473,VALID,326,VALID,0,
2010-01-03, 00:16:05,VALID,1009.75,VALID,0,VALID,38.1211,VALID,0.105969,VALID,23.9278,VALID,326,VALID,0,
2010-01-03, 00:17:05,VALID,1009.73,VALID,0,VALID,38.1059,VALID,0,VALID,23.9473,VALID,326,VALID,0,
2010-01-03, 00:18:05,VALID,1009.71,VALID,0,VALID,38.0525,VALID,0.105969,VALID,23.9473,VALID,326,VALID,0,
2010-01-03, 00:19:05,VALID,1009.73,VALID,0,VALID,38.0754,VALID,0.105969,VALID,23.9473,VALID,326,VALID,0,
2010-01-03, 00:20:05,VALID,1009.68,VALID,0,VALID,38.1211,VALID,0,VALID,23.9278,VALID,326,VALID,0,
2010-01-03, 00:21:05,VALID,1009.68,VALID,0,VALID,38.0906,VALID,0.105969,VALID,23.9278,VALID,326,VALID,0,
2010-01-03, 00:22:05,VALID,1009.67,VALID,0,VALID,38.0525,VALID,0.105969,VALID,23.9473,VALID,326,VALID,0,
2010-01-03, 00:23:05,VALID,1009.65,VALID,0,VALID,38.0373,VALID,0,VALID,23.9278,VALID,326,VALID,0,
2010-01-03, 00:24:05,VALID,1009.68,VALID,0,VALID,38.1135,VALID,0,VALID,23.9065,VALID,326,VALID,0,
2010-01-03, 00:25:05,VALID,1009.7,VALID,0,VALID,38.0678,VALID,0.105969,VALID,23.9278,VALID,326,VALID,0,
2010-01-03, 00:26:05,VALID,1009.67,VALID,0,VALID,38.0906,VALID,0.105969,VALID,23.9084,VALID,326,VALID,0,
2010-01-03, 00:27:05,VALID,1009.66,VALID,0,VALID,38.083,VALID,0,VALID,23.8889,VALID,326,VALID,0,
2010-01-03, 00:28:05,VALID,1009.65,VALID,0,VALID,38.1135,VALID,0.105969,VALID,23.8871,VALID,326,VALID,0,
2010-01-03, 00:29:05,VALID,1009.63,VALID,0,VALID,38.0296,VALID,0,VALID,23.9084,VALID,326,VALID,0,
2010-01-03, 00:30:05,VALID,1009.62,VALID,0,VALID,38.0983,VALID,0,VALID,23.8871,VALID,326,VALID,0,
2010-01-03, 00:31:05,VALID,1009.64,VALID,0,VALID,38.1593,VALID,0,VALID,23.8889,VALID,326,VALID,0,
2010-01-03, 00:32:05,VALID,1009.62,VALID,0,VALID,38.1745,VALID,0.105969,VALID,23.8889,VALID,326,VALID,0,
2010-01-03, 00:33:05,VALID,1009.63,VALID,0,VALID,38.1364,VALID,0,VALID,23.8481,VALID,326,VALID,0,
2010-01-03, 00:34:05,VALID,1009.64,VALID,0,VALID,38.0906,VALID,0.105969,VALID,23.8481,VALID,326,VALID,0,
2010-01-03, 00:35:05,VALID,1009.63,VALID,0,VALID,38.1135,VALID,0,VALID,23.8694,VALID,326,VALID,0,
2010-01-03, 00:36:05,VALID,1009.61,VALID,0,VALID,38.1364,VALID,0,VALID,23.8694,VALID,326,VALID,0,
2010-01-03, 00:37:05,VALID,1009.61,VALID,0,VALID,38.1135,VALID,0.105969,VALID,23.8694,VALID,326,VALID,0,
2010-01-03, 00:38:05,VALID,1009.61,VALID,0,VALID,38.0601,VALID,0.105969,VALID,23.8694,VALID,326,VALID,0,
2010-01-03, 00:39:05,VALID,1009.6,VALID,0,VALID,38.1059,VALID,0.105969,VALID,23.8694,VALID,326,VALID,0,
2010-01-03, 00:40:05,VALID,1009.58,VALID,0,VALID,38.1364,VALID,0,VALID,23.8304,VALID,326,VALID,0,
2010-01-03, 00:41:05,VALID,1009.55,VALID,0,VALID,38.1135,VALID,0.105969,VALID,23.8481,VALID,326,VALID,0,
2010-01-03, 00:42:05,VALID,1009.53,VALID,0,VALID,38.0983,VALID,0,VALID,23.8499,VALID,326,VALID,0,
2010-01-03, 00:43:05,VALID,1009.51,VALID,0,VALID,38.1593,VALID,0,VALID,23.8304,VALID,326,VALID,0,
2010-01-03, 00:44:05,VALID,1009.5,VALID,0,VALID,38.1669,VALID,0,VALID,23.8109,VALID,326,VALID,0,
2010-01-03, 00:45:05,VALID,1009.49,VALID,0,VALID,38.1974,VALID,0,VALID,23.7914,VALID,326,VALID,0,
2010-01-03, 00:46:05,VALID,1009.5,VALID,0,VALID,38.1593,VALID,0,VALID,23.8109,VALID,326,VALID,0,
2010-01-03, 00:47:05,VALID,1009.52,VALID,0,VALID,38.1898,VALID,0,VALID,23.7914,VALID,326,VALID,0,
2010-01-03, 00:48:05,VALID,1009.47,VALID,0,VALID,38.2355,VALID,0,VALID,23.7914,VALID,326,VALID,0,
2010-01-03, 00:49:05,VALID,1009.47,VALID,0,VALID,38.1669,VALID,0,VALID,23.7914,VALID,326,VALID,0,
2010-01-03, 00:50:05,VALID,1009.48,VALID,0,VALID,38.2127,VALID,0,VALID,23.772,VALID,326,VALID,0,
2010-01-03, 00:51:05,VALID,1009.49,VALID,0,VALID,38.144,VALID,0.105969,VALID,23.7507,VALID,326,VALID,0,
2010-01-03, 00:52:05,VALID,1009.45,VALID,0,VALID,38.2508,VALID,0,VALID,23.772,VALID,326,VALID,0,
2010-01-03, 00:53:05,VALID,1009.45,VALID,0,VALID,38.2584,VALID,0,VALID,23.7525,VALID,326,VALID,0,
2010-01-03, 00:54:04,VALID,1009.42,VALID,0,VALID,38.266,VALID,0,VALID,23.7525,VALID,326,VALID,0,
2010-01-03, 00:55:04,VALID,1009.43,VALID,0,VALID,38.2432,VALID,0,VALID,23.7525,VALID,326,VALID,0,
2010-01-03, 00:56:04,VALID,1009.43,VALID,0,VALID,38.2432,VALID,0,VALID,23.7525,VALID,326,VALID,0,
2010-01-03, 00:57:04,VALID,1009.42,VALID,0,VALID,38.1974,VALID,0,VALID,23.7932,VALID,326,VALID,0,
2010-01-03, 00:58:04,VALID,1009.43,VALID,0,VALID,38.2279,VALID,0,VALID,23.7525,VALID,326,VALID,0,
2010-01-03, 00:59:04,VALID,1009.41,VALID,0,VALID,38.2432,VALID,0,VALID,23.7525,VALID,326,VALID,0,
2010-01-03, 01:00:04,VALID,1009.39,VALID,0,VALID,38.144,VALID,0,VALID,23.7525,VALID,326,VALID,0,
2010-01-03, 01:01:04,VALID,1009.4,VALID,0,VALID,38.1745,VALID,0,VALID,23.7525,VALID,326,VALID,0,
2010-01-03, 01:02:04,VALID,1009.42,VALID,0,VALID,38.2127,VALID,0,VALID,23.733,VALID,326,VALID,0,
2010-01-03, 01:03:04,VALID,1009.41,VALID,0,VALID,38.1898,VALID,0,VALID,23.733,VALID,326,VALID,0,
2010-01-03, 01:04:04,VALID,1009.42,VALID,0,VALID,38.2432,VALID,0,VALID,23.7135,VALID,326,VALID,0,
2010-01-03, 01:05:04,VALID,1009.41,VALID,0,VALID,38.2203,VALID,0,VALID,23.7135,VALID,326,VALID,0,
2010-01-03, 01:06:04,VALID,1009.43,VALID,0,VALID,38.2432,VALID,0,VALID,23.6922,VALID,326,VALID,0,
2010-01-03, 01:07:04,VALID,1009.4,VALID,0,VALID,38.2355,VALID,0,VALID,23.7135,VALID,326,VALID,0,
2010-01-03, 01:08:04,VALID,1009.38,VALID,0,VALID,38.2813,VALID,0,VALID,23.694,VALID,326,VALID,0,
2010-01-03, 01:09:04,VALID,1009.38,VALID,0,VALID,38.2203,VALID,0,VALID,23.6727,VALID,326,VALID,0,
2010-01-03, 01:10:04,VALID,1009.38,VALID,0,VALID,38.266,VALID,0,VALID,23.6745,VALID,326,VALID,0,
2010-01-03, 01:11:04,VALID,1009.38,VALID,0,VALID,38.3347,VALID,0,VALID,23.6745,VALID,326,VALID,0,
2010-01-03, 01:12:04,VALID,1009.33,VALID,0,VALID,38.2737,VALID,0,VALID,23.6745,VALID,326,VALID,0,
2010-01-03, 01:13:04,VALID,1009.32,VALID,0,VALID,38.3194,VALID,0,VALID,23.6745,VALID,326,VALID,0,
2010-01-03, 01:14:04,VALID,1009.32,VALID,0,VALID,38.2813,VALID,0,VALID,23.6745,VALID,326,VALID,0,
2010-01-03, 01:15:04,VALID,1009.31,VALID,0,VALID,38.2737,VALID,0,VALID,23.6745,VALID,326,VALID,0,
2010-01-03, 01:16:04,VALID,1009.29,VALID,0,VALID,38.1821,VALID,0,VALID,23.6745,VALID,326,VALID,0,
2010-01-03, 01:17:04,VALID,1009.27,VALID,0,VALID,38.2203,VALID,0,VALID,23.694,VALID,326,VALID,0,
2010-01-03, 01:18:04,VALID,1009.26,VALID,0,VALID,38.2127,VALID,0,VALID,23.694,VALID,326,VALID,0,
2010-01-03, 01:19:04,VALID,1009.25,VALID,0,VALID,38.1821,VALID,0,VALID,23.694,VALID,326,VALID,0,
2010-01-03, 01:20:04,VALID,1009.25,VALID,0,VALID,38.2203,VALID,0,VALID,23.6745,VALID,326,VALID,0,
2010-01-03, 01:21:04,VALID,1009.22,VALID,0,VALID,38.1898,VALID,0,VALID,23.7135,VALID,326,VALID,0,
2010-01-03, 01:22:04,VALID,1009.21,VALID,0,VALID,38.2203,VALID,0,VALID,23.694,VALID,326,VALID,0,
2010-01-03, 01:23:04,VALID,1009.19,VALID,0,VALID,38.1898,VALID,0,VALID,23.6745,VALID,326,VALID,0,
2010-01-03, 01:24:04,VALID,1009.16,VALID,0,VALID,38.1974,VALID,0,VALID,23.6727,VALID,326,VALID,0,
2010-01-03, 01:25:04,VALID,1009.15,VALID,0,VALID,38.1593,VALID,0,VALID,23.7153,VALID,326,VALID,0,
2010-01-03, 01:26:04,VALID,1009.13,VALID,0,VALID,38.1364,VALID,0,VALID,23.7135,VALID,326,VALID,0,
2010-01-03, 01:27:04,VALID,1009.12,VALID,0,VALID,38.083,VALID,0,VALID,23.694,VALID,326,VALID,0,
2010-01-03, 01:28:04,VALID,1009.09,VALID,0,VALID,38.0678,VALID,0.105969,VALID,23.7135,VALID,326,VALID,0,
2010-01-03, 01:29:04,VALID,1009.1,VALID,0,VALID,38.1211,VALID,0.105969,VALID,23.6922,VALID,326,VALID,0,
2010-01-03, 01:30:04,VALID,1009.08,VALID,0,VALID,38.0906,VALID,0.105969,VALID,23.7135,VALID,326,VALID,0,
2010-01-03, 01:31:04,VALID,1009.08,VALID,0,VALID,38.1364,VALID,0.105969,VALID,23.6922,VALID,326,VALID,0,
2010-01-03, 01:32:04,VALID,1009.07,VALID,0,VALID,38.1821,VALID,0,VALID,23.7135,VALID,326,VALID,0,
2010-01-03, 01:33:04,VALID,1009.07,VALID,0,VALID,38.1516,VALID,0,VALID,23.7135,VALID,326,VALID,0,
2010-01-03, 01:34:04,VALID,1009.04,VALID,0,VALID,38.0983,VALID,0,VALID,23.7135,VALID,326,VALID,0,
2010-01-03, 01:35:04,VALID,1009.03,VALID,0,VALID,38.0983,VALID,0,VALID,23.7135,VALID,326,VALID,0,
2010-01-03, 01:36:04,VALID,1009.04,VALID,0,VALID,38.0754,VALID,0,VALID,23.733,VALID,326,VALID,0,
2010-01-03, 01:37:04,VALID,1009,VALID,0,VALID,38.0373,VALID,0.105969,VALID,23.6922,VALID,326,VALID,0,
2010-01-03, 01:38:04,VALID,1008.99,VALID,0,VALID,38.1135,VALID,0,VALID,23.733,VALID,326,VALID,0,
2010-01-03, 01:39:04,VALID,1008.98,VALID,0,VALID,38.0906,VALID,0,VALID,23.733,VALID,326,VALID,0,
2010-01-03, 01:40:04,VALID,1008.96,VALID,0,VALID,38.0449,VALID,0,VALID,23.6922,VALID,326,VALID,0,
2010-01-03, 01:41:04,VALID,1008.99,VALID,0,VALID,38.0906,VALID,0,VALID,23.6922,VALID,326,VALID,0,
2010-01-03, 01:42:04,VALID,1008.98,VALID,0,VALID,38.0754,VALID,0,VALID,23.694,VALID,326,VALID,0,
2010-01-03, 01:43:04,VALID,1009.02,VALID,0,VALID,38.1364,VALID,0,VALID,23.694,VALID,326,VALID,0,
2010-01-03, 01:44:04,VALID,1009.03,VALID,0,VALID,38.1288,VALID,0,VALID,23.6745,VALID,326,VALID,0,
2010-01-03, 01:45:04,VALID,1009.05,VALID,0,VALID,38.1364,VALID,0,VALID,23.6745,VALID,326,VALID,0,
2010-01-03, 01:46:04,VALID,1009.04,VALID,0,VALID,38.1516,VALID,0,VALID,23.6745,VALID,326,VALID,0,
2010-01-03, 01:47:04,VALID,1009.06,VALID,0,VALID,38.1516,VALID,0,VALID,23.6338,VALID,326,VALID,0,
2010-01-03, 01:48:04,VALID,1009.02,VALID,0,VALID,38.0906,VALID,0,VALID,23.6745,VALID,326,VALID,0,
2010-01-03, 01:49:04,VALID,1009,VALID,0,VALID,38.1211,VALID,0,VALID,23.655,VALID,326,VALID,0,
2010-01-03, 01:50:04,VALID,1008.99,VALID,0,VALID,38.1364,VALID,0,VALID,23.655,VALID,326,VALID,0,
2010-01-03, 01:51:04,VALID,1008.96,VALID,0,VALID,38.1593,VALID,0,VALID,23.655,VALID,326,VALID,0,
2010-01-03, 01:52:04,VALID,1009,VALID,0,VALID,38.1364,VALID,0,VALID,23.6568,VALID,326,VALID,0,
2010-01-03, 01:53:04,VALID,1008.97,VALID,0,VALID,38.2127,VALID,0,VALID,23.6143,VALID,326,VALID,0,
2010-01-03, 01:54:04,VALID,1008.97,VALID,0,VALID,38.1669,VALID,0,VALID,23.5948,VALID,326,VALID,0,
2010-01-03, 01:55:04,VALID,1008.97,VALID,0,VALID,38.1288,VALID,0.105969,VALID,23.655,VALID,326,VALID,0,
2010-01-03, 01:56:04,VALID,1008.98,VALID,0,VALID,38.1211,VALID,0,VALID,23.6356,VALID,326,VALID,0,
2010-01-03, 01:57:04,VALID,1008.96,VALID,0,VALID,38.1135,VALID,0,VALID,23.6745,VALID,326,VALID,0,
2010-01-03, 01:58:04,VALID,1008.95,VALID,0,VALID,38.1593,VALID,0,VALID,23.655,VALID,326,VALID,0,
2010-01-03, 01:59:04,VALID,1008.93,VALID,0,VALID,38.0601,VALID,0,VALID,23.6745,VALID,326,VALID,0,
2010-01-03, 02:00:04,VALID,1008.93,VALID,0,VALID,38.0906,VALID,0,VALID,23.655,VALID,326,VALID,0,
2010-01-03, 02:01:04,VALID,1008.96,VALID,0,VALID,38.1135,VALID,0.105969,VALID,23.6532,VALID,326,VALID,0,
2010-01-03, 02:02:04,VALID,1008.98,VALID,0,VALID,38.1135,VALID,0,VALID,23.655,VALID,326,VALID,0,
2010-01-03, 02:03:04,VALID,1008.99,VALID,0,VALID,38.1211,VALID,0.105969,VALID,23.6338,VALID,326,VALID,0,
2010-01-03, 02:04:04,VALID,1008.98,VALID,0,VALID,38.1211,VALID,0,VALID,23.6338,VALID,326,VALID,0,
2010-01-03, 02:05:04,VALID,1009.02,VALID,0,VALID,38.1364,VALID,0.105969,VALID,23.655,VALID,326,VALID,0,
2010-01-03, 02:06:04,VALID,1008.99,VALID,0,VALID,38.1288,VALID,0.105969,VALID,23.6338,VALID,326,VALID,0,
2010-01-03, 02:07:04,VALID,1008.99,VALID,0,VALID,38.1059,VALID,0.105969,VALID,23.655,VALID,326,VALID,0,
2010-01-03, 02:08:04,VALID,1008.96,VALID,0,VALID,38.1364,VALID,0,VALID,23.655,VALID,326,VALID,0,
2010-01-03, 02:09:04,VALID,1008.97,VALID,0,VALID,38.0983,VALID,0.105969,VALID,23.655,VALID,326,VALID,0,
2010-01-03, 02:10:04,VALID,1008.93,VALID,0,VALID,38.0144,VALID,0,VALID,23.6356,VALID,326,VALID,0,
2010-01-03, 02:11:04,VALID,1008.91,VALID,0,VALID,38.0754,VALID,0.105969,VALID,23.655,VALID,326,VALID,0,
2010-01-03, 02:12:04,VALID,1008.92,VALID,0,VALID,38.0525,VALID,0,VALID,23.6338,VALID,326,VALID,0,
2010-01-03, 02:13:04,VALID,1008.93,VALID,0,VALID,38.083,VALID,0.105969,VALID,23.6338,VALID,326,VALID,0,
2010-01-03, 02:14:04,VALID,1008.91,VALID,0,VALID,38.0601,VALID,0.105969,VALID,23.6338,VALID,326,VALID,0,
2010-01-03, 02:15:04,VALID,1008.88,VALID,0,VALID,38.0983,VALID,0.105969,VALID,23.6338,VALID,326,VALID,0,
2010-01-03, 02:16:04,VALID,1008.89,VALID,0,VALID,38.0983,VALID,0,VALID,23.6356,VALID,326,VALID,0,
2010-01-03, 02:17:04,VALID,1008.89,VALID,0,VALID,38.1059,VALID,0,VALID,23.6356,VALID,326,VALID,0,
2010-01-03, 02:18:04,VALID,1008.9,VALID,0,VALID,38.1288,VALID,0.105969,VALID,23.6143,VALID,326,VALID,0,
2010-01-03, 02:19:04,VALID,1008.87,VALID,0,VALID,38.1516,VALID,0,VALID,23.6356,VALID,326,VALID,0,
2010-01-03, 02:20:04,VALID,1008.86,VALID,0,VALID,38.0906,VALID,0.105969,VALID,23.655,VALID,326,VALID,0,
2010-01-03, 02:21:04,VALID,1008.85,VALID,0,VALID,38.1059,VALID,0,VALID,23.6143,VALID,326,VALID,0,
2010-01-03, 02:22:04,VALID,1008.85,VALID,0,VALID,38.0068,VALID,0,VALID,23.655,VALID,326,VALID,0,
2010-01-03, 02:23:04,VALID,1008.85,VALID,0,VALID,38.0906,VALID,0,VALID,23.655,VALID,326,VALID,0,
2010-01-03, 02:24:04,VALID,1008.82,VALID,0,VALID,38.022,VALID,0,VALID,23.655,VALID,326,VALID,0,
2010-01-03, 02:25:04,VALID,1008.82,VALID,0,VALID,38.0449,VALID,0,VALID,23.6143,VALID,326,VALID,0,
2010-01-03, 02:26:04,VALID,1008.82,VALID,0,VALID,38.0601,VALID,0.105969,VALID,23.655,VALID,326,VALID,0,
2010-01-03, 02:27:04,VALID,1008.82,VALID,0,VALID,37.9839,VALID,0,VALID,23.6338,VALID,326,VALID,0,
2010-01-03, 02:28:04,VALID,1008.81,VALID,0,VALID,38.0449,VALID,0,VALID,23.6338,VALID,326,VALID,0,
2010-01-03, 02:29:04,VALID,1008.77,VALID,0,VALID,38.0144,VALID,0,VALID,23.655,VALID,326,VALID,0,
2010-01-03, 02:30:04,VALID,1008.77,VALID,0,VALID,38.0525,VALID,0,VALID,23.6745,VALID,326,VALID,0,
2010-01-03, 02:31:04,VALID,1008.74,VALID,0,VALID,37.9991,VALID,0.105969,VALID,23.655,VALID,337,VALID,0,
2010-01-03, 02:32:04,VALID,1008.75,VALID,0,VALID,37.9381,VALID,0,VALID,23.6745,VALID,39,VALID,0,
2010-01-03, 02:33:04,VALID,1008.74,VALID,0,VALID,37.9457,VALID,0,VALID,23.6745,VALID,68,VALID,0,
2010-01-03, 02:34:04,VALID,1008.7,VALID,0,VALID,37.9457,VALID,0,VALID,23.694,VALID,77,VALID,0,
2010-01-03, 02:35:04,VALID,1008.69,VALID,0,VALID,37.8466,VALID,0,VALID,23.694,VALID,91,VALID,0,
2010-01-03, 02:36:04,VALID,1008.66,VALID,0,VALID,37.9152,VALID,0.105969,VALID,23.694,VALID,91,VALID,0,
2010-01-03, 02:37:04,VALID,1008.67,VALID,0,VALID,37.9991,VALID,0,VALID,23.6532,VALID,91,VALID,0,
2010-01-03, 02:38:04,VALID,1008.63,VALID,0,VALID,37.9915,VALID,0,VALID,23.6745,VALID,83,VALID,0.195313,
2010-01-03, 02:39:04,VALID,1008.64,VALID,0,VALID,37.9381,VALID,0.105969,VALID,23.694,VALID,62,VALID,0.251953,
2010-01-03, 02:40:04,VALID,1008.62,VALID,0,VALID,37.9152,VALID,0,VALID,23.694,VALID,62,VALID,0.345313,
2010-01-03, 02:41:04,VALID,1008.61,VALID,0,VALID,37.8847,VALID,0.105969,VALID,23.694,VALID,83,VALID,0.721875,
2010-01-03, 02:42:04,VALID,1008.57,VALID,0,VALID,37.9305,VALID,0,VALID,23.694,VALID,92,VALID,0.402734,
2010-01-03, 02:43:04,VALID,1008.56,VALID,0,VALID,37.9,VALID,0.105969,VALID,23.694,VALID,75,VALID,0.517187,
2010-01-03, 02:44:04,VALID,1008.54,VALID,0,VALID,37.9534,VALID,0.105969,VALID,23.6922,VALID,71,VALID,0.563281,
2010-01-03, 02:45:04,VALID,1008.56,VALID,0,VALID,37.8924,VALID,0,VALID,23.694,VALID,87,VALID,0.503516,
2010-01-03, 02:46:04,VALID,1008.55,VALID,0,VALID,37.9381,VALID,0.105969,VALID,23.6727,VALID,86,VALID,0.525781,
2010-01-03, 02:47:04,VALID,1008.53,VALID,0,VALID,37.9839,VALID,0,VALID,23.694,VALID,86,VALID,0.628906,
2010-01-03, 02:48:04,VALID,1008.54,VALID,0,VALID,37.9686,VALID,0,VALID,23.694,VALID,77,VALID,0.334766,
2010-01-03, 02:49:04,VALID,1008.52,VALID,0,VALID,37.9534,VALID,0,VALID,23.7135,VALID,78,VALID,0.827344,
2010-01-03, 02:50:04,VALID,1008.51,VALID,0,VALID,37.9076,VALID,0,VALID,23.7135,VALID,102,VALID,0.394922,
2010-01-03, 02:51:04,VALID,1008.5,VALID,0,VALID,37.9686,VALID,0,VALID,23.6922,VALID,100,VALID,0.545703,
2010-01-03, 02:52:04,VALID,1008.51,VALID,0,VALID,37.9305,VALID,0,VALID,23.7135,VALID,76,VALID,0.255469,
2010-01-03, 02:53:04,VALID,1008.51,VALID,0,VALID,37.9534,VALID,0,VALID,23.6727,VALID,89,VALID,0.578125,
2010-01-03, 02:54:04,VALID,1008.51,VALID,0,VALID,37.9305,VALID,0.105969,VALID,23.694,VALID,86,VALID,0.488281,
2010-01-03, 02:55:04,VALID,1008.52,VALID,0,VALID,37.9686,VALID,0.105969,VALID,23.6922,VALID,98,VALID,0.5875,
2010-01-03, 02:56:04,VALID,1008.5,VALID,0,VALID,37.9229,VALID,0.105969,VALID,23.7117,VALID,92,VALID,0.499609,
2010-01-03, 02:57:04,VALID,1008.5,VALID,0,VALID,37.9839,VALID,0,VALID,23.7348,VALID,75,VALID,0.266016,
2010-01-03, 02:58:04,VALID,1008.44,VALID,0,VALID,37.9534,VALID,0,VALID,23.694,VALID,76,VALID,0.364062,
2010-01-03, 02:59:04,VALID,1008.44,VALID,0,VALID,37.9686,VALID,0,VALID,23.7135,VALID,98,VALID,0.369922,
2010-01-03, 03:00:04,VALID,1008.43,VALID,0,VALID,37.9,VALID,0,VALID,23.694,VALID,86,VALID,0.479297,
2010-01-03, 03:01:04,VALID,1008.43,VALID,0,VALID,37.9076,VALID,0,VALID,23.7153,VALID,88,VALID,0.533594,
2010-01-03, 03:02:04,VALID,1008.41,VALID,0,VALID,37.9534,VALID,0,VALID,23.7153,VALID,92,VALID,0.305469,
2010-01-03, 03:03:04,VALID,1008.42,VALID,0,VALID,37.9534,VALID,0,VALID,23.7135,VALID,74,VALID,0.483984,
2010-01-03, 03:04:04,VALID,1008.43,VALID,0,VALID,37.961,VALID,0,VALID,23.7135,VALID,74,VALID,0.540625,
2010-01-03, 03:05:04,VALID,1008.42,VALID,0,VALID,37.9229,VALID,0,VALID,23.7348,VALID,74,VALID,0,
2010-01-03, 03:06:04,VALID,1008.44,VALID,0,VALID,37.9991,VALID,0,VALID,23.7348,VALID,73,VALID,0.422656,
2010-01-03, 03:07:04,VALID,1008.47,VALID,0,VALID,37.9457,VALID,0,VALID,23.7135,VALID,94,VALID,0.103516,
2010-01-03, 03:08:04,VALID,1008.46,VALID,0,VALID,37.961,VALID,0,VALID,23.7135,VALID,94,VALID,0,
2010-01-03, 03:09:04,VALID,1008.47,VALID,0,VALID,37.9534,VALID,0,VALID,23.733,VALID,94,VALID,0,
2010-01-03, 03:10:04,VALID,1008.47,VALID,0,VALID,37.9534,VALID,0,VALID,23.733,VALID,94,VALID,0,
2010-01-03, 03:11:04,VALID,1008.47,VALID,0,VALID,37.9457,VALID,0,VALID,23.7348,VALID,94,VALID,0,
2010-01-03, 03:12:04,VALID,1008.45,VALID,0,VALID,38.0068,VALID,0,VALID,23.7525,VALID,94,VALID,0,
2010-01-03, 03:13:04,VALID,1008.46,VALID,0,VALID,38.0068,VALID,0.105969,VALID,23.7525,VALID,87,VALID,0,
2010-01-03, 03:14:04,VALID,1008.46,VALID,0,VALID,38.0144,VALID,0,VALID,23.733,VALID,87,VALID,0,
2010-01-03, 03:15:04,VALID,1008.46,VALID,0,VALID,38.0601,VALID,0,VALID,23.733,VALID,87,VALID,0,
2010-01-03, 03:16:04,VALID,1008.49,VALID,0,VALID,38.022,VALID,0,VALID,23.7117,VALID,87,VALID,0,
2010-01-03, 03:17:04,VALID,1008.46,VALID,0,VALID,38.0754,VALID,0.105969,VALID,23.7117,VALID,87,VALID,0,
2010-01-03, 03:18:04,VALID,1008.47,VALID,0,VALID,38.0601,VALID,0,VALID,23.6922,VALID,86,VALID,0,
2010-01-03, 03:19:04,VALID,1008.46,VALID,0,VALID,38.1059,VALID,0,VALID,23.7135,VALID,96,VALID,0,
2010-01-03, 03:20:04,VALID,1008.46,VALID,0,VALID,38.0525,VALID,0.105969,VALID,23.733,VALID,95,VALID,0,
2010-01-03, 03:21:04,VALID,1008.45,VALID,0,VALID,38.0678,VALID,0,VALID,23.7135,VALID,66,VALID,0,
2010-01-03, 03:22:04,VALID,1008.43,VALID,0,VALID,38.0906,VALID,0,VALID,23.7135,VALID,66,VALID,0,
2010-01-03, 03:23:04,VALID,1008.45,VALID,0,VALID,38.1135,VALID,0,VALID,23.6727,VALID,66,VALID,0,
2010-01-03, 03:24:04,VALID,1008.43,VALID,0,VALID,38.0983,VALID,0,VALID,23.694,VALID,66,VALID,0,
2010-01-03, 03:25:04,VALID,1008.41,VALID,0,VALID,38.083,VALID,0,VALID,23.7135,VALID,75,VALID,0,
2010-01-03, 03:26:04,VALID,1008.39,VALID,0,VALID,38.0906,VALID,0,VALID,23.694,VALID,75,VALID,0,
2010-01-03, 03:27:04,VALID,1008.38,VALID,0,VALID,38.1821,VALID,0,VALID,23.7135,VALID,75,VALID,0,
2010-01-03, 03:28:04,VALID,1008.39,VALID,0,VALID,38.0906,VALID,0,VALID,23.6745,VALID,75,VALID,0,
2010-01-03, 03:29:04,VALID,1008.35,VALID,0,VALID,38.1135,VALID,0,VALID,23.6745,VALID,75,VALID,0,
2010-01-03, 03:30:04,VALID,1008.35,VALID,0,VALID,38.1135,VALID,0,VALID,23.6532,VALID,75,VALID,0,
2010-01-03, 03:31:04,VALID,1008.32,VALID,0,VALID,38.1898,VALID,0.105969,VALID,23.6532,VALID,75,VALID,0,
2010-01-03, 03:32:04,VALID,1008.33,VALID,0,VALID,38.0983,VALID,0.105969,VALID,23.655,VALID,75,VALID,0,
2010-01-03, 03:33:04,VALID,1008.34,VALID,0,VALID,38.1288,VALID,0.105969,VALID,23.6338,VALID,75,VALID,0,
2010-01-03, 03:34:04,VALID,1008.34,VALID,0,VALID,38.1745,VALID,0,VALID,23.6356,VALID,75,VALID,0,
2010-01-03, 03:35:04,VALID,1008.32,VALID,0,VALID,38.144,VALID,0,VALID,23.6338,VALID,75,VALID,0,
2010-01-03, 03:36:04,VALID,1008.34,VALID,0,VALID,38.1364,VALID,0.105969,VALID,23.6356,VALID,75,VALID,0,
2010-01-03, 03:37:04,VALID,1008.32,VALID,0,VALID,38.1516,VALID,0,VALID,23.6356,VALID,75,VALID,0,
2010-01-03, 03:38:04,VALID,1008.33,VALID,0,VALID,38.1898,VALID,0,VALID,23.6356,VALID,75,VALID,0,
2010-01-03, 03:39:04,VALID,1008.33,VALID,0,VALID,38.1745,VALID,0,VALID,23.6356,VALID,75,VALID,0,
2010-01-03, 03:40:04,VALID,1008.37,VALID,0,VALID,38.1821,VALID,0,VALID,23.6161,VALID,75,VALID,0,
2010-01-03, 03:41:04,VALID,1008.37,VALID,0,VALID,38.1821,VALID,0.105969,VALID,23.5948,VALID,75,VALID,0,
2010-01-03, 03:42:04,VALID,1008.39,VALID,0,VALID,38.2279,VALID,0,VALID,23.5984,VALID,75,VALID,0,
2010-01-03, 03:43:04,VALID,1008.41,VALID,0,VALID,38.2813,VALID,0,VALID,23.5984,VALID,75,VALID,0,
2010-01-03, 03:44:04,VALID,1008.42,VALID,0,VALID,38.3042,VALID,0,VALID,23.5789,VALID,75,VALID,0,
2010-01-03, 03:45:04,VALID,1008.42,VALID,0,VALID,38.2813,VALID,0,VALID,23.5789,VALID,75,VALID,0,
2010-01-03, 03:46:04,VALID,1008.41,VALID,0,VALID,38.2508,VALID,0,VALID,23.5789,VALID,75,VALID,0,
2010-01-03, 03:47:04,VALID,1008.44,VALID,0,VALID,38.266,VALID,0,VALID,23.5594,VALID,75,VALID,0,
2010-01-03, 03:48:04,VALID,1008.41,VALID,0,VALID,38.2737,VALID,0,VALID,23.5594,VALID,75,VALID,0,
2010-01-03, 03:49:04,VALID,1008.42,VALID,0,VALID,38.3042,VALID,0,VALID,23.5399,VALID,75,VALID,0,
2010-01-03, 03:50:04,VALID,1008.45,VALID,0,VALID,38.3423,VALID,0,VALID,23.5399,VALID,75,VALID,0,
2010-01-03, 03:51:04,VALID,1008.43,VALID,0,VALID,38.2965,VALID,0,VALID,23.5204,VALID,75,VALID,0,
2010-01-03, 03:52:04,VALID,1008.44,VALID,0,VALID,38.3499,VALID,0,VALID,23.5204,VALID,75,VALID,0,
2010-01-03, 03:53:04,VALID,1008.45,VALID,0,VALID,38.2584,VALID,0,VALID,23.5204,VALID,75,VALID,0,
2010-01-03, 03:54:04,VALID,1008.43,VALID,0,VALID,38.2965,VALID,0,VALID,23.5399,VALID,75,VALID,0,